This is the latest recevied weather packets stored in our database for station/object K4QXN-13. If no packets are shown the sender has not sent any weather packets the latest 10 day(s).
| Time | Temp. | Humidity | Pressure | Rain* | Wind** | Luminosity | Snow |
|---|---|---|---|---|---|---|---|
| 1787787390 | 22.78° C | 93% | 1016.5 hPa | 0 mm | - | - | - |
| 1787787088 | 22.78° C | 92% | 1016.9 hPa | 0 mm | - | - | - |
| 1787786787 | 22.78° C | 92% | 1016.9 hPa | 0 mm | - | - | - |
| 1787786485 | 23.33° C | 91% | 1016.5 hPa | 0 mm | - | - | - |
| 1787786183 | 23.33° C | 91% | 1016.9 hPa | 0 mm | - | - | - |
| 1787785881 | 23.33° C | 91% | 1016.9 hPa | 0 mm | - | - | - |
| 1787785579 | 23.33° C | 90% | 1016.5 hPa | 0 mm | - | - | - |
| 1787785278 | 23.89° C | 89% | 1016.9 hPa | 0 mm | - | - | - |
| 1787784976 | 24.44° C | 86% | 1016.5 hPa | 0 mm | - | - | - |
| 1787784674 | 25.56° C | 82% | 1016.2 hPa | 0 mm | - | - | - |
| 1787784373 | 27.22° C | 73% | 1016.2 hPa | 0 mm | - | - | - |
| 1787784071 | 27.22° C | 73% | 1015.9 hPa | 0 mm | - | - | - |
| 1787783769 | 27.78° C | 71% | 1015.9 hPa | 0 mm | - | - | - |
| 1787783467 | 28.89° C | 69% | 1015.9 hPa | 0 mm | - | - | - |
| 1787783166 | 30° C | 65% | 1015.5 hPa | 0 mm | - | - | - |
| 1787782864 | 30.56° C | 64% | 1015.5 hPa | 0 mm | - | - | - |
| 1787782562 | 30.56° C | 62% | 1015.5 hPa | 0 mm | - | - | - |
| 1787782261 | 30.56° C | 61% | 1015.5 hPa | 0 mm | - | - | - |
| 1787781959 | 31.11° C | 62% | 1015.5 hPa | 0 mm | - | - | - |
| 1787781658 | 30.56° C | 63% | 1015.5 hPa | 0 mm | - | - | - |
| 1787781356 | 30° C | 63% | 1015.5 hPa | 0 mm | - | - | - |
| 1787781054 | 30.56° C | 64% | 1015.5 hPa | 0 mm | - | - | - |
| 1787780753 | 31.11° C | 61% | 1015.5 hPa | 0 mm | - | - | - |
| 1787780451 | 31.11° C | 60% | 1015.5 hPa | 0 mm | - | - | - |
| 1787780149 | 32.22° C | 59% | 1015.5 hPa | 0 mm | - | - | - |
* Rain latest hour (hover to see other rain measurements)
** Current wind speed in m/s (hover to see current wind gust speed)